Location: Borowce
(50.8255°N, 19.6209°E)
Time: 08:22:51
(UTC+00:00)

Cosmos 192 - Pass Details

Date: 19 May 2025
Orbit: 695 x 708 km, 74.0° (Epoch: 16 June)

Event Time Altitude Azimuth Distance (km) Brightness Sun altitude
Rises 20:06:13 0° 336° (NNW) 3,116 9.5 -11.7°
Reaches altitude 10° 20:08:34 10° 338° (NNW) 2,193 8.3 -12.0°
Maximum altitude 20:13:31 74° 64° (ENE) 743 4.4 -12.4°
Enters shadow 20:17:07 19° 148° (SSE) 1,671 5.6 -12.7°
